User: anonymous
Location: Sperry Observatory
(40.6664°N, 74.3236°W)
Time: 01:58:07
(UTC-04:00)
Language:

UOSAT-12 - Orbit

View from above orbital plane
View from above orbital plane
View from above satellite
View from above satellite

Ground track
Ground track

The orbit data is extracted from the following two-line orbital elements,

1 25693U 99021A   14273.51362247  .00000686  00000-0  10769-3 0  6211
2 25693 064.5560 298.0018 0049809 274.7659 236.3775 14.80050937833500
Epoch (UTC): 30 September 2014 12:19:36
Eccentricity: 0.0049809
inclination: 64.5560°
perigee height: 594 km
apogee height: 664 km
right ascension of ascending node: 298.0018°
argument of perigee: 274.7659°
revolutions per day: 14.80050937
mean anomaly at epoch: 236.3775°
orbit number at epoch: 83350

The dashed part of the orbit path shows where the satellite is in the earth's shadow,  

DLR